This demonstration page uses our WeatherBlox Daily Observations layout. Learn more.

Left ArrowRight Arrow

31.84235, -102.49876

Hourly Observations for July 11, 2022

Temp ( °F °C ) Dew Point ( °F °C ) Humidity (%) Winds ( mph kmh ) Pressure ( in mb ) Visibility ( mi km ) Precip ( " mm )
12:53 am 00:53 Clear 84 28.9 58 14.4 41 41 W 3 6 29.87 1012 10 16 0.00 0.00
1:53 am 01:53 Clear 82 27.8 57 13.9 42 42 Calm 29.86 1011 10 16 0.00 0.00
2:53 am 02:53 Clear 81 27.2 57 13.9 44 44 W 3 6 29.85 1011 10 16 0.00 0.00
3:53 am 03:53 Clear 80 26.7 57 13.9 45 45 Calm 29.85 1011 10 16 0.00 0.00
4:53 am 04:53 Clear 78 25.6 57 13.9 48 48 ESE 5 7 29.85 1011 10 16 0.00 0.00
5:53 am 05:53 Clear 78 25.6 57 13.9 48 48 W 3 6 29.84 1010 10 16 0.00 0.00
6:53 am 06:53 Sunny 75 23.9 57 13.9 54 54 NNE 5 7 29.85 1011 10 16 0.00 0.00
7:53 am 07:53 Sunny 81 27.2 57 13.9 44 44 Calm 29.85 1011 10 16 0.00 0.00
8:53 am 08:53 Sunny 87 30.6 58 14.4 37 37 W 7 11 29.85 1011 10 16 0.00 0.00
9:53 am 09:53 Sunny 92 33.3 58 14.4 32 32 W 9 15 29.85 1011 10 16 0.00 0.00
10:53 am 10:53 Sunny 96 35.6 57 13.9 27 27 W 10 17 29.84 1011 10 16 0.00 0.00
11:53 am 11:53 Mostly Sunny 98 36.7 52 11.1 21 21 SSW 7 11 29.85 1011 10 16 0.00 0.00
12:53 pm 12:53 Sunny 102 38.9 45 7.2 14 14 E 12 19 29.84 1010 10 16 0.00 0.00
1:53 pm 13:53 Sunny 101 38.3 46 7.8 15 15 ESE 12 19 29.82 1010 10 16 0.00 0.00
2:53 pm 14:53 Sunny 102 38.9 46 7.8 15 15 VRB 7 11 29.80 1009 10 16 0.00 0.00
3:53 pm 15:53 Sunny 104 40 39 3.9 11 11 SE 13 20 29.78 1009 10 16 0.00 0.00
4:53 pm 16:53 Sunny 104 40 38 3.3 10 10 E 10 17 29.75 1008 10 16 0.00 0.00
5:53 pm 17:53 Sunny 105 40.6 38 3.3 10 10 ENE 15 24 29.74 1007 10 16 0.00 0.00
6:53 pm 18:53 Sunny 102 38.9 39 3.9 11 11 ENE 6 9 29.73 1007 10 16 0.00 0.00
7:53 pm 19:53 Sunny 102 38.9 39 3.9 11 11 ENE 13 20 29.72 1007 10 16 0.00 0.00
8:53 pm 20:53 Sunny 97 36.1 40 4.4 14 14 E 9 15 29.73 1007 10 16 0.00 0.00
9:53 pm 21:53 Clear 91 32.8 40 4.4 17 17 E 6 9 29.75 1008 10 16 0.00 0.00
10:53 pm 22:53 Clear 88 31.1 41 5 19 19 E 8 13 29.78 1009 10 16 0.00 0.00
11:53 pm 23:53 Clear 90 32.2 43 6.1 19 19 E 10 17 29.80 1009 10 16 0.00 0.00

Powered by AerisWeather